Weather History for KLXV - August, 2013

Change the Weather History Date:

Saturday, August 17, 2013

  Actual Average Record
Temperature  
Mean Temperature 57 °F -  
Max Temperature 74 °F 68 °F 78 °F (2002)
Min Temperature 39 °F 38 °F 30 °F (1985)
Degree Days  
Heating Degree Days 8 12  
Month to date heating degree days 218 194  
Since 1 June heating degree days 856 1010  
Since 1 July heating degree days 485 530  
Cooling Degree Days 0 0  
Month to date cooling degree days 0 0  
Year to date cooling degree days 0 0  
Since 1 June cooling degree days 0 0  
Growing Degree Days 6 (Base 50)    
Moisture  
Dew Point 27 °F    
Average Humidity 39    
Maximum Humidity 64    
Minimum Humidity 13    
Precipitation  
Precipitation 0.00 in 0.07 in 0.44 in (1992)
Month to date precipitation 0.65 1.17  
Year to date precipitation 10.88 8.09  
Sea Level Pressure  
Sea Level Pressure 30.03 in    
Wind  
Wind Speed 4 mph (NNE)    
Max Wind Speed 17 mph    
Max Gust Speed 24 mph    
Visibility 10 miles    
Events      
T = Trace of Precipitation, MM = Missing Value Source: NWS Daily Summary

Daily Weather History Graph

Daily Weather History Graph

Search for Another Location

Airport or City:

Trip Planner

Search our weather history database for the weather conditions in past years. The results will help you decide how hot, cold, wet, or windy it might be!

Date:

Astronomy

Aug. 17, 2013 Rise Set
Actual Time 6:20 AM MDT 7:57 PM MDT
Civil Twilight 5:51 AM MDT 8:25 PM MDT
Nautical Twilight 5:17 AM MDT 9:00 PM MDT
Astronomical Twilight 4:41 AM MDT 9:36 PM MDT
Moon 5:14 PM MDT (8/17) 2:27 AM MDT (8/17)
Length of Visible Light 14h 33m
Length of Day
13h 37m
Waxing Gibbous, 85% of the Moon is Illuminated
Aug 17
Waxing Gibbous
Aug 20
Full
Aug 28
Last Quarter
Sep 5
New
Sep 12
First Quarter

Hourly Weather History & Observations

Time (MDT) Temp. Windchill Dew Point Humidity Pressure Visibility Wind Dir Wind Speed Gust Speed Precip Events Conditions
12:53 AM 44.1 °F - 28.9 °F 55% 30.08 in 10.0 mi Calm Calm - N/A   Clear
1:53 AM 45.0 °F - 28.0 °F 52% 30.06 in 10.0 mi Calm Calm - N/A   Clear
2:53 AM 39.9 °F 35.1 °F 28.0 °F 63% 30.09 in 10.0 mi ENE 6.9 mph - N/A   Clear
3:53 AM 42.1 °F 40.2 °F 28.0 °F 58% 30.06 in 10.0 mi NNE 3.5 mph - N/A   Mostly Cloudy
4:53 AM 41.0 °F 39.0 °F 28.0 °F 60% 30.06 in 10.0 mi NE 3.5 mph - N/A   Mostly Cloudy
5:53 AM 43.0 °F - 28.9 °F 58% 30.05 in 10.0 mi Calm Calm - N/A   Mostly Cloudy
6:53 AM 42.1 °F 39.2 °F 30.9 °F 65% 30.09 in 10.0 mi NE 4.6 mph - N/A   Partly Cloudy
7:53 AM 48.0 °F - 33.1 °F 56% 30.10 in 10.0 mi Calm Calm - N/A   Clear
8:53 AM 55.9 °F - 30.9 °F 39% 30.09 in 10.0 mi Calm Calm - N/A   Mostly Cloudy
9:53 AM 62.1 °F - 33.1 °F 34% 30.05 in 10.0 mi Variable 3.5 mph - N/A   Mostly Cloudy
10:53 AM 66.9 °F - 23.0 °F 19% 30.03 in 10.0 mi Calm Calm - N/A   Mostly Cloudy
11:53 AM 66.0 °F - 24.1 °F 20% 30.08 in 10.0 mi NW 6.9 mph 16.1 mph N/A   Overcast
12:53 PM 72.0 °F - 21.9 °F 15% 30.02 in 10.0 mi NW 8.1 mph 20.7 mph N/A   Mostly Cloudy
1:53 PM 68.0 °F - 19.9 °F 16% 30.02 in 10.0 mi Calm Calm - N/A   Scattered Clouds
2:53 PM 73.0 °F - 19.9 °F 14% 30.00 in 10.0 mi NNW 10.4 mph - N/A   Partly Cloudy
3:53 PM 70.0 °F - 21.0 °F 16% 29.99 in 10.0 mi NE 5.8 mph - N/A   Scattered Clouds
4:53 PM 70.0 °F - 23.0 °F 17% 29.99 in 10.0 mi NNW 9.2 mph - N/A   Mostly Cloudy
5:53 PM 69.1 °F - 21.0 °F 16% 29.98 in 10.0 mi North 6.9 mph - N/A   Partly Cloudy
6:53 PM 68.0 °F - 24.1 °F 19% 29.99 in 10.0 mi North 9.2 mph - N/A   Clear
7:53 PM 62.1 °F - 26.1 °F 25% 30.00 in 10.0 mi Calm Calm - N/A   Clear
8:53 PM 55.9 °F - 28.9 °F 36% 29.99 in 10.0 mi ENE 6.9 mph - N/A   Clear
9:53 PM 55.9 °F - 30.0 °F 37% 29.98 in 10.0 mi ENE 5.8 mph - N/A   Mostly Cloudy
10:53 PM 55.9 °F - 28.0 °F 34% 29.94 in 10.0 mi East 3.5 mph - N/A   Clear
11:53 PM 51.1 °F - 30.9 °F 46% 29.99 in 10.0 mi Calm Calm - N/A   Mostly Cloudy